Location: Christianberg
(48.9086°N, 14.0209°E)
Time: 18:18:02
(UTC+00:00)

FENGYUN 1C DEB - Pass Details

Date: 06 February 2022
Orbit: 832 x 1169 km, 98.6° (Epoch: 26 May)

Event Time Altitude Azimuth Distance (km) Brightness Sun altitude
Rises 03:35:48 0° 173° (S) 3,377 ? -28.4°
Enters shadow 03:37:56 - 176° (S) 2,529 ? -28.1°
Exits shadow 03:50:33 - 343° (NNW) 3,148 ? -26.0°
Sets 03:51:23 0° 344° (NNW) 3,476 ? -25.9°
